Content
SEND FEEDBACK

Daily
Averages
Monthly
Summary
United States of America

WRIGHTSBORO, NORTH CAROLINA


Home > North America > United States > North Carolina
Elevation: 30 feet     Latitude: 34 18N     Longitude: 077 54W

WEATHER
 
SELECT A DAY
Number of Records: 212,284;   Date Range: 1/1/95 - 10/20/14
 
SHARE

PRINT THIS DATA

[ ← Previous Day ]
WEATHER ALMANAC - FEBRUARY 3, 2013
[ Next Day → ]
[ °C ]   °F
Weather ElementAverageHighLow
Temperature44.4 °F55 °F (1:53 pm)35.1 °F (10:53 pm)
Dewpoint32.2 °F37.9 °F (1:53 am)26.1 °F (1:53 pm)
Humidity65.6 %87 % (6:53 am)33 % (1:53 pm)
Barometer29.95 in30.02 in (1:53 am)29.88 in (1:53 pm)
Wind Speed6.5 mph16.1 mph (11:53 am)
Wind Gust23 mph (2:53 pm)
Weather ElementAverage
Visibility10 mi
Wind DirectionSSW (213.2 °)

Weather ElementTotal
Precipitation---
Heating Degree Days20 (Base 65)
Averaged from 25 records on February 3, 2013
WEATHER CONDITIONS BREAKOUT
WIND DIRECTION BREAKOUT
WEATHER BY HOUR - FEBRUARY 3, 2013
[ °C ]   °F
Local TimeTemperatureDewpointHumidityBarometerVisibilityWind DirectionWind SpeedGust SpeedPrecipitationEventsConditions
1:53 AM45.0 °F37.9 °F76 %30.02 in10.0 miWest (260°)5.8 mphMostly Cloudy
2:53 AM44.1 °F37.9 °F79 %29.99 in10.0 miWSW (240°)5.8 mphMostly Cloudy
3:53 AM41.0 °F36.0 °F82 %29.97 in10.0 miCalmClear
4:53 AM39.9 °F35.1 °F83 %29.96 in10.0 miSW (220°)5.8 mphClear
5:53 AM39.9 °F34.0 °F79 %29.95 in10.0 miWest (280°)3.5 mphClear
6:53 AM37.4 °F33.8 °F87 %29.96 in10.0 miWSW (240°)4.6 mphClear
7:36 AM39.2 °F33.8 °F81 %29.99 in10.0 miWest (280°)4.6 mphMostly Cloudy
7:53 AM39.9 °F35.1 °F83 %29.99 in10.0 miWSW (240°)3.5 mphOvercast
8:44 AM42.8 °F35.6 °F76 %29.99 in10.0 miWest (280°)8.1 mphScattered Clouds
8:53 AM43.0 °F36.0 °F76 %29.99 in10.0 miWest (280°)12.7 mph18.4 mphPartly Cloudy
9:53 AM46.9 °F36.0 °F66 %29.98 in10.0 miWNW (300°)9.2 mphClear
10:53 AM50.0 °F35.1 °F57 %29.97 in10.0 miWNW (290°)11.5 mphClear
11:53 AM51.1 °F32.0 °F48 %29.95 in10.0 miWNW (300°)16.1 mph19.6 mphPartly Cloudy
12:53 PM54.0 °F28.0 °F37 %29.92 in10.0 miWNW (290°)13.8 mph21.9 mphClear
1:53 PM55.0 °F26.1 °F33 %29.88 in10.0 miWest (270°)15.0 mphClear
2:53 PM54.0 °F26.1 °F34 %29.89 in10.0 miWNW (300°)11.5 mph23.0 mphMostly Cloudy
3:53 PM55.0 °F27.0 °F34 %29.88 in10.0 miWNW (300°)11.5 mph18.4 mphScattered Clouds
4:53 PM54.0 °F28.0 °F37 %29.90 in10.0 miNW (320°)9.2 mphScattered Clouds
5:53 PM48.9 °F28.0 °F44 %29.90 in10.0 miNW (320°)3.5 mphClear
6:53 PM43.0 °F32.0 °F65 %29.94 in10.0 miCalmClear
7:53 PM39.0 °F32.0 °F76 %29.94 in10.0 miCalmClear
8:53 PM37.0 °F30.9 °F79 %29.96 in10.0 miCalmClear
9:53 PM36.0 °F30.9 °F82 %29.97 in10.0 miCalmClear
10:53 PM35.1 °F30.0 °F82 %29.98 in10.0 miCalmClear
11:53 PM39.0 °F28.0 °F65 %30.00 in10.0 miNW (320°)5.8 mphClear
Hourly data recorded from KILM, located miles away from Wrightsboro, North Carolina







STORIES FROM OUR PARTNERS